• In Hungary
  • List of Countries
  • For 7 days
  • Water Temperature
  • Satellite Maps
  • Weather Map
  • News
  • Weather Widgets
  • user-avatar
    Login

    Hourly Weather Velke Mezirici

    Today, 24 October, Tuesday

    Time Temperature Precipitation Wind Pressure Humidity
    00:00 +6°C° 0 mm 5 mps 721 mmHg 89%
    01:00 +5°C° 0 mm 4 mps 721 mmHg 89%
    02:00 +5°C° 0 mm 4 mps 721 mmHg 90%
    03:00 +5°C° 0 mm 4 mps 722 mmHg 91%
    04:00 +5°C° 0 mm 4 mps 722 mmHg 91%
    05:00 +5°C° 0 mm 3 mps 722 mmHg 92%
    06:00 +4°C° 0 mm 3 mps 722 mmHg 93%
    07:00 +4°C° 0 mm 3 mps 723 mmHg 94%
    08:00 +5°C° 0 mm 3 mps 723 mmHg 88%
    09:00 +7°C° 0 mm 4 mps 724 mmHg 83%
    10:00 +8°C° 0 mm 4 mps 724 mmHg 78%
    11:00 +10°C° 0 mm 4 mps 724 mmHg 77%
    12:00 +10°C° 0 mm 4 mps 724 mmHg 75%
    13:00 +11°C° 0 mm 4 mps 725 mmHg 73%
    14:00 +10°C° 0 mm 3 mps 724 mmHg 75%
    15:00 +10°C° 0 mm 3 mps 724 mmHg 76%
    16:00 +10°C° 0 mm 2 mps 724 mmHg 78%
    17:00 +9°C° 0 mm 2 mps 725 mmHg 82%
    18:00 +9°C° 0 mm 1 mps 725 mmHg 86%
    19:00 +8°C° 0 mm 1 mps 725 mmHg 90%
    20:00 +8°C° 0 mm 1 mps 725 mmHg 90%
    21:00 +8°C° 0 mm 1 mps 725 mmHg 90%
    22:00 +8°C° 0 mm 1 mps 725 mmHg 91%
    23:00 +8°C° 0 mm 1 mps 725 mmHg 91%

    Tomorrow, 25 October, Wednesday

    Time Temperature Precipitation Wind Pressure Humidity
    00:00 +8°C° 0 mm 1 mps 725 mmHg 91%
    01:00 +8°C° 0 mm 1 mps 725 mmHg 91%
    02:00 +8°C° 0 mm 1 mps 725 mmHg 91%
    03:00 +8°C° 0 mm 1 mps 725 mmHg 90%
    04:00 +8°C° 0 mm 1 mps 724 mmHg 90%
    05:00 +8°C° 0 mm 1 mps 724 mmHg 90%
    06:00 +9°C° 0 mm 1 mps 724 mmHg 89%
    07:00 +8°C° 0 mm 2 mps 724 mmHg 89%
    08:00 +9°C° 0 mm 2 mps 725 mmHg 86%
    09:00 +10°C° 0 mm 2 mps 725 mmHg 83%
    10:00 +11°C° 0 mm 3 mps 725 mmHg 80%
    11:00 +13°C° 0 mm 3 mps 725 mmHg 78%
    12:00 +14°C° 0 mm 3 mps 725 mmHg 75%
    13:00 +16°C° 0 mm 3 mps 725 mmHg 72%
    14:00 +14°C° 0 mm 3 mps 724 mmHg 75%
    15:00 +14°C° 0 mm 3 mps 724 mmHg 78%
    16:00 +14°C° 0 mm 2 mps 724 mmHg 81%
    17:00 +14°C° 0 mm 2 mps 725 mmHg 82%
    18:00 +14°C° 0 mm 2 mps 725 mmHg 84%
    19:00 +12°C° 0 mm 3 mps 725 mmHg 85%
    20:00 +13°C° 0 mm 2 mps 726 mmHg 86%
    21:00 +12°C° 0 mm 2 mps 726 mmHg 87%
    22:00 +12°C° 0 mm 2 mps 726 mmHg 88%
    23:00 +10°C° 0 mm 2 mps 726 mmHg 89%

    Day after tomorrow, 26 October, Thursday

    Time Temperature Precipitation Wind Pressure Humidity
    00:00 +10°C° 0 mm 2 mps 726 mmHg 91%
    01:00 +9°C° 0 mm 2 mps 726 mmHg 92%
    02:00 +9°C° 0 mm 2 mps 726 mmHg 92%
    03:00 +9°C° 0 mm 2 mps 726 mmHg 92%
    04:00 +8°C° 0 mm 2 mps 725 mmHg 93%
    05:00 +8°C° 0 mm 2 mps 725 mmHg 93%
    06:00 +8°C° 0 mm 2 mps 726 mmHg 93%
    07:00 +9°C° 0 mm 1 mps 726 mmHg 93%
    08:00 +10°C° 0 mm 2 mps 726 mmHg 87%
    09:00 +13°C° 0 mm 2 mps 726 mmHg 81%
    10:00 +14°C° 0 mm 2 mps 726 mmHg 75%
    11:00 +15°C° 0 mm 2 mps 726 mmHg 71%
    12:00 +16°C° 0 mm 3 mps 725 mmHg 67%
    13:00 +17°C° 0 mm 3 mps 725 mmHg 63%
    14:00 +17°C° 0 mm 2 mps 725 mmHg 67%
    15:00 +16°C° 0 mm 2 mps 724 mmHg 70%
    16:00 +15°C° 0 mm 2 mps 724 mmHg 73%
    17:00 +14°C° 0 mm 2 mps 724 mmHg 78%
    18:00 +13°C° 0 mm 2 mps 723 mmHg 82%
    19:00 +12°C° 0 mm 2 mps 723 mmHg 86%
    20:00 +12°C° 0 mm 2 mps 723 mmHg 87%
    21:00 +12°C° 0 mm 2 mps 723 mmHg 89%
    22:00 +10°C° 0 mm 3 mps 723 mmHg 90%
    23:00 +10°C° 0 mm 3 mps 723 mmHg 90%

    27 October, Friday

    Time Temperature Precipitation Wind Pressure Humidity
    00:00 +10°C° 0 mm 3 mps 722 mmHg 90%
    01:00 +10°C° 0 mm 3 mps 722 mmHg 90%
    02:00 +10°C° 0 mm 3 mps 722 mmHg 91%
    03:00 +10°C° 0 mm 3 mps 722 mmHg 92%
    04:00 +10°C° 0 mm 3 mps 721 mmHg 93%
    05:00 +10°C° 0 mm 3 mps 721 mmHg 92%
    06:00 +11°C° 0 mm 4 mps 721 mmHg 91%
    07:00 +11°C° 0 mm 4 mps 720 mmHg 91%
    08:00 +12°C° 0.1 mm 5 mps 720 mmHg 85%
    09:00 +13°C° 0.1 mm 5 mps 720 mmHg 80%
    10:00 +14°C° 0.1 mm 6 mps 720 mmHg 75%
    11:00 +14°C° 0.1 mm 6 mps 719 mmHg 72%
    12:00 +14°C° 0.1 mm 7 mps 718 mmHg 69%
    13:00 +14°C° 0.1 mm 7 mps 718 mmHg 66%
    14:00 +12°C° 0.9 mm 7 mps 717 mmHg 71%
    15:00 +10°C° 0.9 mm 7 mps 717 mmHg 76%
    16:00 +9°C° 0.9 mm 7 mps 716 mmHg 81%
    17:00 +8°C° 0.8 mm 7 mps 717 mmHg 81%
    18:00 +6°C° 0.8 mm 7 mps 717 mmHg 82%
    19:00 +5°C° 0.8 mm 7 mps 717 mmHg 82%
    20:00 +5°C° 0.1 mm 7 mps 718 mmHg 81%
    21:00 +5°C° 0.1 mm 7 mps 718 mmHg 80%
    22:00 +5°C° 0.1 mm 7 mps 719 mmHg 79%
    23:00 +5°C° 0.1 mm 7 mps 718 mmHg 79%

    28 October, Saturday

    Time Temperature Precipitation Wind Pressure Humidity
    00:00 +5°C° 0.1 mm 8 mps 718 mmHg 80%
    01:00 +5°C° 0.1 mm 8 mps 718 mmHg 80%
    02:00 +5°C° 0.1 mm 8 mps 718 mmHg 80%
    03:00 +5°C° 0.1 mm 8 mps 718 mmHg 80%
    04:00 +5°C° 0.1 mm 8 mps 718 mmHg 80%
    05:00 +5°C° 0.1 mm 8 mps 718 mmHg 80%
    06:00 +5°C° 0.1 mm 7 mps 718 mmHg 79%
    07:00 +5°C° 0.1 mm 7 mps 718 mmHg 79%
    08:00 +5°C° 0.1 mm 7 mps 718 mmHg 75%
    09:00 +6°C° 0.1 mm 7 mps 718 mmHg 71%
    10:00 +6°C° 0.1 mm 8 mps 718 mmHg 68%
    11:00 +6°C° 0.2 mm 8 mps 718 mmHg 68%
    12:00 +6°C° 0.2 mm 8 mps 718 mmHg 68%
    13:00 +6°C° 0.2 mm 8 mps 717 mmHg 69%
    14:00 +6°C° 0.3 mm 7 mps 717 mmHg 72%
    15:00 +6°C° 0.3 mm 7 mps 716 mmHg 75%
    16:00 +5°C° 0.3 mm 7 mps 716 mmHg 78%
    17:00 +5°C° 0.1 mm 7 mps 716 mmHg 79%
    18:00 +5°C° 0.1 mm 7 mps 716 mmHg 80%
    19:00 +5°C° 0.1 mm 7 mps 715 mmHg 81%
    20:00 +5°C° 0.7 mm 7 mps 715 mmHg 82%
    21:00 +4°C° 0.7 mm 7 mps 715 mmHg 84%
    22:00 +4°C° 0.7 mm 7 mps 715 mmHg 85%
    23:00 +5°C° 0.2 mm 7 mps 715 mmHg 84%

    29 October, Sunday

    Time Temperature Precipitation Wind Pressure Humidity
    00:00 +5°C° 0.2 mm 8 mps 714 mmHg 83%
    01:00 +5°C° 0.2 mm 8 mps 714 mmHg 82%
    02:00 +5°C° 0.3 mm 8 mps 714 mmHg 81%
    03:00 +5°C° 0.3 mm 8 mps 714 mmHg 80%
    04:00 +3°C° 0.3 mm 9 mps 714 mmHg 79%
    05:00 +4°C° 0.1 mm 8 mps 714 mmHg 80%
    06:00 +4°C° 0.1 mm 8 mps 714 mmHg 81%
    07:00 +2°C° 0.1 mm 8 mps 715 mmHg 82%
    08:00 +4°C° 0 mm 8 mps 715 mmHg 78%
    09:00 +5°C° 0 mm 8 mps 716 mmHg 74%
    10:00 +5°C° 0 mm 8 mps 716 mmHg 69%
    11:00 +6°C° 0 mm 8 mps 716 mmHg 68%
    12:00 +6°C° 0 mm 8 mps 716 mmHg 66%
    13:00 +7°C° 0 mm 8 mps 716 mmHg 64%
    14:00 +6°C° 0.1 mm 7 mps 716 mmHg 67%
    15:00 +6°C° 0.1 mm 7 mps 716 mmHg 70%
    16:00 +5°C° 0.1 mm 6 mps 715 mmHg 73%
    17:00 +5°C° 0 mm 6 mps 715 mmHg 75%
    18:00 +6°C° 0 mm 5 mps 715 mmHg 78%
    19:00 +6°C° 0 mm 5 mps 715 mmHg 80%
    20:00 +6°C° 0.1 mm 5 mps 715 mmHg 81%
    21:00 +6°C° 0.1 mm 5 mps 714 mmHg 83%
    22:00 +6°C° 0.1 mm 5 mps 714 mmHg 84%
    23:00 +5°C° 0.5 mm 6 mps 714 mmHg 85%

    30 October, Monday

    Time Temperature Precipitation Wind Pressure Humidity
    00:00 +5°C° 0.5 mm 6 mps 713 mmHg 86%
    01:00 +5°C° 0.5 mm 6 mps 713 mmHg 86%
    02:00 +5°C° 0.3 mm 6 mps 712 mmHg 86%
    03:00 +5°C° 0.3 mm 6 mps 712 mmHg 86%
    04:00 +5°C° 0.3 mm 7 mps 712 mmHg 86%
    05:00 +5°C° 0.1 mm 6 mps 712 mmHg 85%
    06:00 +5°C° 0.1 mm 6 mps 712 mmHg 84%
    07:00 +5°C° 0.1 mm 6 mps 712 mmHg 83%
    08:00 +5°C° 0.1 mm 7 mps 712 mmHg 81%
    09:00 +6°C° 0.1 mm 7 mps 712 mmHg 79%
    10:00 +6°C° 0.1 mm 7 mps 712 mmHg 76%
    11:00 +6°C° 0.1 mm 7 mps 712 mmHg 75%
    12:00 +6°C° 0.1 mm 7 mps 712 mmHg 74%
    13:00 +6°C° 0.1 mm 8 mps 712 mmHg 72%
    14:00 +6°C° 0.1 mm 7 mps 712 mmHg 72%
    15:00 +6°C° 0.1 mm 7 mps 712 mmHg 72%
    16:00 +6°C° 0.1 mm 7 mps 712 mmHg 73%
    17:00 +5°C° 0.1 mm 7 mps 712 mmHg 74%
    18:00 +5°C° 0.1 mm 7 mps 712 mmHg 75%
    19:00 +5°C° 0.1 mm 6 mps 712 mmHg 76%
    20:00 +4°C° 0.1 mm 7 mps 712 mmHg 76%
    21:00 +4°C° 0.1 mm 7 mps 712 mmHg 76%
    22:00 +4°C° 0.1 mm 7 mps 712 mmHg 76%
    23:00 +4°C° 0.2 mm 7 mps 712 mmHg 76%
    Show more